Year,Month,Day,Hour,Minute,Value (Times are PST for temperature in C)
2021,08,11,00,00,23.10
2021,08,11,00,01,23.20
2021,08,11,00,02,23.20
2021,08,11,00,03,23.20
2021,08,11,00,04,23.20
2021,08,11,00,05,23.20
2021,08,11,00,06,23.20
2021,08,11,00,07,23.20
2021,08,11,00,08,23.20
2021,08,11,00,09,23.20
2021,08,11,00,10,23.20
2021,08,11,00,11,23.30
2021,08,11,00,12,23.30
2021,08,11,00,13,23.30
2021,08,11,00,14,23.30
2021,08,11,00,15,23.40
2021,08,11,00,16,23.40
2021,08,11,00,17,23.40
2021,08,11,00,18,23.40
2021,08,11,00,19,23.40
2021,08,11,00,20,23.40
2021,08,11,00,21,23.50
2021,08,11,00,22,23.50
2021,08,11,00,23,23.40
2021,08,11,00,24,23.40
2021,08,11,00,25,23.40
2021,08,11,00,26,23.40
2021,08,11,00,27,23.40
2021,08,11,00,28,23.30
2021,08,11,00,29,23.30
2021,08,11,00,30,23.30
2021,08,11,00,31,23.30
2021,08,11,00,32,23.30
2021,08,11,00,33,23.30
2021,08,11,00,34,23.30
2021,08,11,00,35,23.30
2021,08,11,00,36,23.30
2021,08,11,00,37,23.30
2021,08,11,00,38,23.30
2021,08,11,00,39,23.30
2021,08,11,00,40,23.30
2021,08,11,00,41,23.20
2021,08,11,00,42,23.20
2021,08,11,00,43,23.20
2021,08,11,00,44,23.20
2021,08,11,00,45,23.20
2021,08,11,00,46,23.20
2021,08,11,00,47,23.20
2021,08,11,00,48,23.10
2021,08,11,00,49,23.10
2021,08,11,00,50,23.10
2021,08,11,00,51,23.10
2021,08,11,00,52,23.00
2021,08,11,00,53,23.00
2021,08,11,00,54,22.90
2021,08,11,00,55,22.90
2021,08,11,00,56,22.80
2021,08,11,00,57,22.80
2021,08,11,00,58,22.80
2021,08,11,00,59,22.70
2021,08,11,01,00,22.70
2021,08,11,01,01,22.60
2021,08,11,01,02,22.60
2021,08,11,01,03,22.50
2021,08,11,01,04,22.50
2021,08,11,01,05,22.40
2021,08,11,01,06,22.40
2021,08,11,01,07,22.40
2021,08,11,01,08,22.40
2021,08,11,01,09,22.40
2021,08,11,01,10,22.40
2021,08,11,01,11,22.40
2021,08,11,01,12,22.40
2021,08,11,01,13,22.40
2021,08,11,01,14,22.40
2021,08,11,01,15,22.30
2021,08,11,01,16,22.30
2021,08,11,01,17,22.30
2021,08,11,01,18,22.30
2021,08,11,01,19,22.20
2021,08,11,01,20,22.20
2021,08,11,01,21,22.20
2021,08,11,01,22,22.20
2021,08,11,01,23,22.20
2021,08,11,01,24,22.10
2021,08,11,01,25,22.10
2021,08,11,01,26,22.10
2021,08,11,01,27,22.00
2021,08,11,01,28,22.00
2021,08,11,01,29,21.90
2021,08,11,01,30,21.90
2021,08,11,01,31,21.90
2021,08,11,01,32,21.80
2021,08,11,01,33,21.80
2021,08,11,01,34,21.70
2021,08,11,01,35,21.70
2021,08,11,01,36,21.70
2021,08,11,01,37,21.70
2021,08,11,01,38,21.60
2021,08,11,01,39,21.60
2021,08,11,01,40,21.60
2021,08,11,01,41,21.60
2021,08,11,01,42,21.50
2021,08,11,01,43,21.50
2021,08,11,01,44,21.40
2021,08,11,01,45,21.40
2021,08,11,01,46,21.40
2021,08,11,01,47,21.40
2021,08,11,01,48,21.30
2021,08,11,01,49,21.30
2021,08,11,01,50,21.30
2021,08,11,01,51,21.30
2021,08,11,01,52,21.20
2021,08,11,01,53,21.20
2021,08,11,01,54,21.20
2021,08,11,01,55,21.20
2021,08,11,01,56,21.10
2021,08,11,01,57,21.10
2021,08,11,01,58,21.10
2021,08,11,01,59,21.00
2021,08,11,02,00,21.00
2021,08,11,02,01,21.00
2021,08,11,02,02,20.90
2021,08,11,02,03,20.90
2021,08,11,02,04,20.90
2021,08,11,02,05,20.90
2021,08,11,02,06,20.80
2021,08,11,02,07,20.80
2021,08,11,02,08,20.80
2021,08,11,02,09,20.80
2021,08,11,02,10,20.80
2021,08,11,02,11,20.80
2021,08,11,02,12,20.80
2021,08,11,02,13,20.90
2021,08,11,02,14,20.90
2021,08,11,02,15,20.90
2021,08,11,02,16,21.00
2021,08,11,02,17,21.10
2021,08,11,02,18,21.10
2021,08,11,02,19,21.10
2021,08,11,02,20,21.10
2021,08,11,02,21,21.10
2021,08,11,02,22,21.10
2021,08,11,02,23,21.10
2021,08,11,02,24,21.10
2021,08,11,02,25,21.10
2021,08,11,02,26,21.10
2021,08,11,02,27,21.10
2021,08,11,02,28,21.00
2021,08,11,02,29,21.00
2021,08,11,02,30,21.00
2021,08,11,02,31,20.90
2021,08,11,02,32,20.90
2021,08,11,02,33,20.90
2021,08,11,02,34,20.90
2021,08,11,02,35,20.90
2021,08,11,02,36,20.80
2021,08,11,02,37,20.80
2021,08,11,02,38,20.80
2021,08,11,02,39,20.80
2021,08,11,02,40,20.70
2021,08,11,02,41,20.70
2021,08,11,02,42,20.70
2021,08,11,02,43,20.70
2021,08,11,02,44,20.70
2021,08,11,02,45,20.70
2021,08,11,02,46,20.60
2021,08,11,02,47,20.60
2021,08,11,02,48,20.60
2021,08,11,02,49,20.60
2021,08,11,02,50,20.50
2021,08,11,02,51,20.50
2021,08,11,02,52,20.50
2021,08,11,02,53,20.40
2021,08,11,02,54,20.40
2021,08,11,02,55,20.40
2021,08,11,02,56,20.40
2021,08,11,02,57,20.40
2021,08,11,02,58,20.30
2021,08,11,02,59,20.30
2021,08,11,03,00,20.30
2021,08,11,03,01,20.20
2021,08,11,03,02,20.20
2021,08,11,03,03,20.20
2021,08,11,03,04,20.20
2021,08,11,03,05,20.10
2021,08,11,03,06,20.10
2021,08,11,03,07,20.10
2021,08,11,03,08,20.00
2021,08,11,03,09,20.00
2021,08,11,03,10,20.00
2021,08,11,03,11,19.90
2021,08,11,03,12,19.90
2021,08,11,03,13,19.90
2021,08,11,03,14,19.80
2021,08,11,03,15,19.80
2021,08,11,03,16,19.80
2021,08,11,03,17,19.80
2021,08,11,03,18,19.70
2021,08,11,03,19,19.70
2021,08,11,03,20,19.70
2021,08,11,03,21,19.70
2021,08,11,03,22,19.60
2021,08,11,03,23,19.60
2021,08,11,03,24,19.60
2021,08,11,03,25,19.60
2021,08,11,03,26,19.60
2021,08,11,03,27,19.50
2021,08,11,03,28,19.50
2021,08,11,03,29,19.50
2021,08,11,03,30,19.40
2021,08,11,03,31,19.40
2021,08,11,03,32,19.40
2021,08,11,03,33,19.40
2021,08,11,03,34,19.40
2021,08,11,03,35,19.30
2021,08,11,03,36,19.30
2021,08,11,03,37,19.30
2021,08,11,03,38,19.30
2021,08,11,03,39,19.30
2021,08,11,03,40,19.20
2021,08,11,03,41,19.20
2021,08,11,03,42,19.20
2021,08,11,03,43,19.20
2021,08,11,03,44,19.20
2021,08,11,03,45,19.10
2021,08,11,03,46,19.10
2021,08,11,03,47,19.10
2021,08,11,03,48,19.10
2021,08,11,03,49,19.10
2021,08,11,03,50,19.10
2021,08,11,03,51,19.10
2021,08,11,03,52,19.10
2021,08,11,03,53,19.10
2021,08,11,03,54,19.10
2021,08,11,03,55,19.00
2021,08,11,03,56,19.00
2021,08,11,03,57,19.00
2021,08,11,03,58,19.00
2021,08,11,03,59,18.90
2021,08,11,04,00,18.90
2021,08,11,04,01,18.90
2021,08,11,04,02,18.90
2021,08,11,04,03,18.90
2021,08,11,04,04,18.80
2021,08,11,04,05,18.80
2021,08,11,04,06,18.90
2021,08,11,04,07,18.80
2021,08,11,04,08,18.80
2021,08,11,04,09,18.80
2021,08,11,04,10,18.80
2021,08,11,04,11,18.80
2021,08,11,04,12,18.80
2021,08,11,04,13,18.80
2021,08,11,04,14,18.80
2021,08,11,04,15,18.80
2021,08,11,04,16,18.70
2021,08,11,04,17,18.70
2021,08,11,04,18,18.70
2021,08,11,04,19,18.70
2021,08,11,04,20,18.70
2021,08,11,04,21,18.70
2021,08,11,04,22,18.70
2021,08,11,04,23,18.60
2021,08,11,04,24,18.60
2021,08,11,04,25,18.60
2021,08,11,04,26,18.60
2021,08,11,04,27,18.60
2021,08,11,04,28,18.60
2021,08,11,04,29,18.60
2021,08,11,04,30,18.60
2021,08,11,04,31,18.60
2021,08,11,04,32,18.60
2021,08,11,04,33,18.60
2021,08,11,04,34,18.50
2021,08,11,04,35,18.50
2021,08,11,04,36,18.50
2021,08,11,04,37,18.50
2021,08,11,04,38,18.40
2021,08,11,04,39,18.40
2021,08,11,04,40,18.40
2021,08,11,04,41,18.40
2021,08,11,04,42,18.40
2021,08,11,04,43,18.40
2021,08,11,04,44,18.40
2021,08,11,04,45,18.30
2021,08,11,04,46,18.30
2021,08,11,04,47,18.30
2021,08,11,04,48,18.30
2021,08,11,04,49,18.30
2021,08,11,04,50,18.20
2021,08,11,04,51,18.20
2021,08,11,04,52,18.20
2021,08,11,04,53,18.20
2021,08,11,04,54,18.20
2021,08,11,04,55,18.20
2021,08,11,04,56,18.20
2021,08,11,04,57,18.20
2021,08,11,04,58,18.20
2021,08,11,04,59,18.20
2021,08,11,05,00,18.10
2021,08,11,05,01,18.10
2021,08,11,05,02,18.10
2021,08,11,05,03,18.10
2021,08,11,05,04,18.10
2021,08,11,05,05,18.10
2021,08,11,05,06,18.10
2021,08,11,05,07,18.10
2021,08,11,05,08,18.10
2021,08,11,05,09,18.10
2021,08,11,05,10,18.00
2021,08,11,05,11,18.00
2021,08,11,05,12,18.00
2021,08,11,05,13,18.00
2021,08,11,05,14,18.00
2021,08,11,05,15,17.90
2021,08,11,05,16,17.90
2021,08,11,05,17,17.90
2021,08,11,05,18,17.90
2021,08,11,05,19,17.90
2021,08,11,05,20,17.90
2021,08,11,05,21,17.90
2021,08,11,05,22,17.90
2021,08,11,05,23,17.90
2021,08,11,05,24,17.80
2021,08,11,05,25,17.80
2021,08,11,05,26,17.80
2021,08,11,05,27,17.80
2021,08,11,05,28,17.80
2021,08,11,05,29,17.80
2021,08,11,05,30,17.80
2021,08,11,05,31,17.80
2021,08,11,05,32,17.80
2021,08,11,05,33,17.80
2021,08,11,05,34,17.80
2021,08,11,05,35,17.80
2021,08,11,05,36,17.80
2021,08,11,05,37,17.80
2021,08,11,05,38,17.80
2021,08,11,05,39,17.80
2021,08,11,05,40,17.80
2021,08,11,05,41,17.80
2021,08,11,05,42,17.80
2021,08,11,05,43,17.80
2021,08,11,05,44,17.80
2021,08,11,05,45,17.80
2021,08,11,05,46,17.80
2021,08,11,05,47,17.80
2021,08,11,05,48,17.80
2021,08,11,05,49,17.80
2021,08,11,05,50,17.80
2021,08,11,05,51,17.80
2021,08,11,05,52,17.80
2021,08,11,05,53,17.80
2021,08,11,05,54,17.80
2021,08,11,05,55,17.80
2021,08,11,05,56,17.80
2021,08,11,05,57,17.80
2021,08,11,05,58,17.80
2021,08,11,05,59,17.80
2021,08,11,06,00,17.80
2021,08,11,06,01,17.80
2021,08,11,06,02,17.80
2021,08,11,06,03,17.80
2021,08,11,06,04,17.80
2021,08,11,06,05,17.70
2021,08,11,06,06,17.70
2021,08,11,06,07,17.70
2021,08,11,06,08,17.70
2021,08,11,06,09,17.70
2021,08,11,06,10,17.70
2021,08,11,06,11,17.60
2021,08,11,06,12,17.60
2021,08,11,06,13,17.60
2021,08,11,06,14,17.60
2021,08,11,06,15,17.50
2021,08,11,06,16,17.50
2021,08,11,06,17,17.50
2021,08,11,06,18,17.40
2021,08,11,06,19,17.40
2021,08,11,06,20,17.40
2021,08,11,06,21,17.40
2021,08,11,06,22,17.40
2021,08,11,06,23,17.40
2021,08,11,06,24,17.40
2021,08,11,06,25,17.30
2021,08,11,06,26,17.30
2021,08,11,06,27,17.30
2021,08,11,06,28,17.30
2021,08,11,06,29,17.30
2021,08,11,06,30,17.30
2021,08,11,06,31,17.30
2021,08,11,06,32,17.30
2021,08,11,06,33,17.20
2021,08,11,06,34,17.20
2021,08,11,06,35,17.20
2021,08,11,06,36,17.20
2021,08,11,06,37,17.20
2021,08,11,06,38,17.20
2021,08,11,06,39,17.20
2021,08,11,06,40,17.20
2021,08,11,06,41,17.20
2021,08,11,06,42,17.20
2021,08,11,06,43,17.20
2021,08,11,06,44,17.20
2021,08,11,06,45,17.10
2021,08,11,06,46,17.10
2021,08,11,06,47,17.10
2021,08,11,06,48,17.10
2021,08,11,06,49,17.10
2021,08,11,06,50,17.10
2021,08,11,06,51,17.10
2021,08,11,06,52,17.20
2021,08,11,06,53,17.20
2021,08,11,06,54,17.20
2021,08,11,06,55,17.20
2021,08,11,06,56,17.20
2021,08,11,06,57,17.20
2021,08,11,06,58,17.20
2021,08,11,06,59,17.20
2021,08,11,07,00,17.20
2021,08,11,07,01,17.20
2021,08,11,07,02,17.20
2021,08,11,07,03,17.20
2021,08,11,07,04,17.20
2021,08,11,07,05,17.20
2021,08,11,07,06,17.20
2021,08,11,07,07,17.20
2021,08,11,07,08,17.30
2021,08,11,07,09,17.30
2021,08,11,07,10,17.30
2021,08,11,07,11,17.30
2021,08,11,07,12,17.40
2021,08,11,07,13,17.40
2021,08,11,07,14,17.40
2021,08,11,07,15,17.40
2021,08,11,07,16,17.40
2021,08,11,07,17,17.40
2021,08,11,07,18,17.40
2021,08,11,07,19,17.40
2021,08,11,07,20,17.40
2021,08,11,07,21,17.40
2021,08,11,07,22,17.40
2021,08,11,07,23,17.40
2021,08,11,07,24,17.40
2021,08,11,07,25,17.50
2021,08,11,07,26,17.50
2021,08,11,07,27,17.50
2021,08,11,07,28,17.50
2021,08,11,07,29,17.50
2021,08,11,07,30,17.50
2021,08,11,07,31,17.50
2021,08,11,07,32,17.50
2021,08,11,07,33,17.50
2021,08,11,07,34,17.50
2021,08,11,07,35,17.50
2021,08,11,07,36,17.50
2021,08,11,07,37,17.50
2021,08,11,07,38,17.50
2021,08,11,07,39,17.50
2021,08,11,07,40,17.50
2021,08,11,07,41,17.50
2021,08,11,07,42,17.60
2021,08,11,07,43,17.60
2021,08,11,07,44,17.60
2021,08,11,07,45,17.70
2021,08,11,07,46,17.70
2021,08,11,07,47,17.80
2021,08,11,07,48,17.90
2021,08,11,07,49,18.10
2021,08,11,07,50,18.10
2021,08,11,07,51,18.20
2021,08,11,07,52,18.30
2021,08,11,07,53,18.30
2021,08,11,07,54,18.40
2021,08,11,07,55,18.40
2021,08,11,07,56,18.50
2021,08,11,07,57,18.50
2021,08,11,07,58,18.60
2021,08,11,07,59,18.70
2021,08,11,08,00,18.70
2021,08,11,08,01,18.80
2021,08,11,08,02,18.80
2021,08,11,08,03,18.90
2021,08,11,08,04,19.00
2021,08,11,08,05,19.10
2021,08,11,08,06,19.20
2021,08,11,08,07,19.20
2021,08,11,08,08,19.30
2021,08,11,08,09,19.40
2021,08,11,08,10,19.50
2021,08,11,08,11,19.50
2021,08,11,08,12,19.60
2021,08,11,08,13,19.60
2021,08,11,08,14,19.70
2021,08,11,08,15,19.70
2021,08,11,08,16,19.80
2021,08,11,08,17,19.90
2021,08,11,08,18,19.90
2021,08,11,08,19,20.00
2021,08,11,08,20,20.10
2021,08,11,08,21,20.10
2021,08,11,08,22,20.20
2021,08,11,08,23,20.30
2021,08,11,08,24,20.40
2021,08,11,08,25,20.50
2021,08,11,08,26,20.70
2021,08,11,08,27,20.70
2021,08,11,08,28,20.80
2021,08,11,08,29,20.80
2021,08,11,08,30,20.80
2021,08,11,08,31,20.80
2021,08,11,08,32,20.80
2021,08,11,08,33,20.80
2021,08,11,08,34,20.80
2021,08,11,08,35,20.80
2021,08,11,08,36,20.90
2021,08,11,08,37,20.90
2021,08,11,08,38,20.90
2021,08,11,08,39,21.00
2021,08,11,08,40,21.00
2021,08,11,08,41,21.10
2021,08,11,08,42,21.10
2021,08,11,08,43,21.10
2021,08,11,08,44,21.20
2021,08,11,08,45,21.20
2021,08,11,08,46,21.20
2021,08,11,08,47,21.30
2021,08,11,08,48,21.30
2021,08,11,08,49,21.30
2021,08,11,08,50,21.30
2021,08,11,08,51,21.40
2021,08,11,08,52,21.40
2021,08,11,08,53,21.40
2021,08,11,08,54,21.40
2021,08,11,08,55,21.50
2021,08,11,08,56,21.60
2021,08,11,08,57,21.60
2021,08,11,08,58,21.70
2021,08,11,08,59,21.70
2021,08,11,09,00,21.70
2021,08,11,09,01,21.80
2021,08,11,09,02,21.80
2021,08,11,09,03,21.90
2021,08,11,09,04,22.00
2021,08,11,09,05,22.10
2021,08,11,09,06,22.10
2021,08,11,09,07,22.20
2021,08,11,09,08,22.30
2021,08,11,09,09,22.30
2021,08,11,09,10,22.40
2021,08,11,09,11,22.50
2021,08,11,09,12,22.50
2021,08,11,09,13,22.50
2021,08,11,09,14,22.50
2021,08,11,09,15,22.50
2021,08,11,09,16,22.50
2021,08,11,09,17,22.50
2021,08,11,09,18,22.60
2021,08,11,09,19,22.60
2021,08,11,09,20,22.60
2021,08,11,09,21,22.60
2021,08,11,09,22,22.70
2021,08,11,09,23,22.70
2021,08,11,09,24,22.70
2021,08,11,09,25,22.70
2021,08,11,09,26,22.80
2021,08,11,09,27,22.80
2021,08,11,09,28,22.90
2021,08,11,09,29,22.90
2021,08,11,09,30,22.90
2021,08,11,09,31,22.90
2021,08,11,09,32,22.90
2021,08,11,09,33,23.00
2021,08,11,09,34,23.00
2021,08,11,09,35,23.00
2021,08,11,09,36,23.10
2021,08,11,09,37,23.10
2021,08,11,09,38,23.10
2021,08,11,09,39,23.20
2021,08,11,09,40,23.20
2021,08,11,09,41,23.20
2021,08,11,09,42,23.20
2021,08,11,09,43,23.20
2021,08,11,09,44,23.30
2021,08,11,09,45,23.40
2021,08,11,09,46,23.40
2021,08,11,09,47,23.40
2021,08,11,09,48,23.50
2021,08,11,09,49,23.50
2021,08,11,09,50,23.50
2021,08,11,09,51,23.60
2021,08,11,09,52,23.60
2021,08,11,09,53,23.60
2021,08,11,09,54,23.70
2021,08,11,09,55,23.70
2021,08,11,09,56,23.70
2021,08,11,09,57,23.80
2021,08,11,09,58,23.80
2021,08,11,09,59,23.80
2021,08,11,10,00,23.90
2021,08,11,10,01,23.90
2021,08,11,10,02,24.00
2021,08,11,10,03,24.10
2021,08,11,10,04,24.10
2021,08,11,10,05,24.20
2021,08,11,10,06,24.20
2021,08,11,10,07,24.20
2021,08,11,10,08,24.30
2021,08,11,10,09,24.30
2021,08,11,10,10,24.20
2021,08,11,10,11,24.20
2021,08,11,10,12,24.20
2021,08,11,10,13,24.30
2021,08,11,10,14,24.30
2021,08,11,10,15,24.30
2021,08,11,10,16,24.30
2021,08,11,10,17,24.40
2021,08,11,10,18,24.40
2021,08,11,10,19,24.50
2021,08,11,10,20,24.50
2021,08,11,10,21,24.60
2021,08,11,10,22,24.70
2021,08,11,10,23,24.70
2021,08,11,10,24,24.80
2021,08,11,10,25,24.80
2021,08,11,10,26,24.90
2021,08,11,10,27,25.00
2021,08,11,10,28,25.00
2021,08,11,10,29,25.10
2021,08,11,10,30,25.10
2021,08,11,10,31,25.00
2021,08,11,10,32,25.10
2021,08,11,10,33,25.10
2021,08,11,10,34,25.20
2021,08,11,10,35,25.20
2021,08,11,10,36,25.20
2021,08,11,10,37,25.30
2021,08,11,10,38,25.30
2021,08,11,10,39,25.40
2021,08,11,10,40,25.40
2021,08,11,10,41,25.50
2021,08,11,10,42,25.50
2021,08,11,10,43,25.60
2021,08,11,10,44,25.60
2021,08,11,10,45,25.70
2021,08,11,10,46,25.80
2021,08,11,10,47,25.90
2021,08,11,10,48,26.00
2021,08,11,10,49,26.10
2021,08,11,10,50,26.10
2021,08,11,10,51,26.00
2021,08,11,10,52,26.10
2021,08,11,10,53,26.10
2021,08,11,10,54,26.10
2021,08,11,10,55,26.10
2021,08,11,10,56,26.10
2021,08,11,10,57,26.20
2021,08,11,10,58,26.20
2021,08,11,10,59,26.20
2021,08,11,11,00,26.20
2021,08,11,11,01,26.30
2021,08,11,11,02,26.30
2021,08,11,11,03,26.30
2021,08,11,11,04,26.30
2021,08,11,11,05,26.40
2021,08,11,11,06,26.40
2021,08,11,11,07,26.50
2021,08,11,11,08,26.50
2021,08,11,11,09,26.50
2021,08,11,11,10,26.60
2021,08,11,11,11,26.60
2021,08,11,11,12,26.70
2021,08,11,11,13,26.80
2021,08,11,11,14,26.90
2021,08,11,11,15,27.00
2021,08,11,11,16,27.10
2021,08,11,11,17,27.10
2021,08,11,11,18,27.20
2021,08,11,11,19,27.20
2021,08,11,11,20,27.30
2021,08,11,11,21,27.30
2021,08,11,11,22,27.30
2021,08,11,11,23,27.30
2021,08,11,11,24,27.40
2021,08,11,11,25,27.50
2021,08,11,11,26,27.50
2021,08,11,11,27,27.50
2021,08,11,11,28,27.50
2021,08,11,11,29,27.50
2021,08,11,11,30,27.60
2021,08,11,11,31,27.60
2021,08,11,11,32,27.60
2021,08,11,11,33,27.60
2021,08,11,11,34,27.60
2021,08,11,11,35,27.60
2021,08,11,11,36,27.70
2021,08,11,11,37,27.70
2021,08,11,11,38,27.70
2021,08,11,11,39,27.70
2021,08,11,11,40,27.80
2021,08,11,11,41,27.80
2021,08,11,11,42,27.90
2021,08,11,11,43,28.10
2021,08,11,11,44,28.20
2021,08,11,11,45,28.20
2021,08,11,11,46,28.30
2021,08,11,11,47,28.30
2021,08,11,11,48,28.30
2021,08,11,11,49,28.30
2021,08,11,11,50,28.20
2021,08,11,11,51,28.20
2021,08,11,11,52,28.20
2021,08,11,11,53,28.30
2021,08,11,11,54,28.40
2021,08,11,11,55,28.50
2021,08,11,11,56,28.50
2021,08,11,11,57,28.60
2021,08,11,11,58,28.70
2021,08,11,11,59,28.80
2021,08,11,12,00,28.80
2021,08,11,12,01,28.80
2021,08,11,12,02,28.90
2021,08,11,12,03,28.90
2021,08,11,12,04,28.90
2021,08,11,12,05,29.00
2021,08,11,12,06,29.10
2021,08,11,12,07,29.20
2021,08,11,12,08,29.30
2021,08,11,12,09,29.30
2021,08,11,12,10,29.40
2021,08,11,12,11,29.50
2021,08,11,12,12,29.50
2021,08,11,12,13,29.50
2021,08,11,12,14,29.60
2021,08,11,12,15,29.60
2021,08,11,12,16,29.70
2021,08,11,12,17,29.70
2021,08,11,12,18,29.70
2021,08,11,12,19,29.70
2021,08,11,12,20,29.60
2021,08,11,12,21,29.60
2021,08,11,12,22,29.70
2021,08,11,12,23,29.80
2021,08,11,12,24,29.80
2021,08,11,12,25,29.90
2021,08,11,12,26,30.00
2021,08,11,12,27,30.00
2021,08,11,12,28,30.10
2021,08,11,12,29,30.10
2021,08,11,12,30,30.20
2021,08,11,12,31,30.30
2021,08,11,12,32,30.40
2021,08,11,12,33,30.40
2021,08,11,12,34,30.40
2021,08,11,12,35,30.40
2021,08,11,12,36,30.40
2021,08,11,12,37,30.40
2021,08,11,12,38,30.40
2021,08,11,12,39,30.40
2021,08,11,12,40,30.40
2021,08,11,12,41,30.50
2021,08,11,12,42,30.60
2021,08,11,12,43,30.60
2021,08,11,12,44,30.60
2021,08,11,12,45,30.70
2021,08,11,12,46,30.70
2021,08,11,12,47,30.70
2021,08,11,12,48,30.70
2021,08,11,12,49,30.70
2021,08,11,12,50,30.80
2021,08,11,12,51,30.90
2021,08,11,12,52,31.00
2021,08,11,12,53,31.00
2021,08,11,12,54,31.10
2021,08,11,12,55,31.10
2021,08,11,12,56,31.20
2021,08,11,12,57,31.20
2021,08,11,12,58,31.20
2021,08,11,12,59,31.20
2021,08,11,13,00,31.10
2021,08,11,13,01,31.10
2021,08,11,13,02,31.10
2021,08,11,13,03,31.10
2021,08,11,13,04,31.20
2021,08,11,13,05,31.30
2021,08,11,13,06,31.30
2021,08,11,13,07,31.40
2021,08,11,13,08,31.50
2021,08,11,13,09,31.60
2021,08,11,13,10,31.70
2021,08,11,13,11,31.70
2021,08,11,13,12,31.80
2021,08,11,13,13,31.80
2021,08,11,13,14,31.80
2021,08,11,13,15,31.90
2021,08,11,13,16,31.90
2021,08,11,13,17,31.90
2021,08,11,13,18,32.00
2021,08,11,13,19,32.00
2021,08,11,13,20,32.00
2021,08,11,13,21,32.10
2021,08,11,13,22,32.00
2021,08,11,13,23,32.00
2021,08,11,13,24,32.10
2021,08,11,13,25,32.10
2021,08,11,13,26,32.10
2021,08,11,13,27,32.10
2021,08,11,13,28,32.10
2021,08,11,13,29,32.20
2021,08,11,13,30,32.20
2021,08,11,13,31,32.10
2021,08,11,13,32,32.10
2021,08,11,13,33,32.20
2021,08,11,13,34,32.20
2021,08,11,13,35,32.30
2021,08,11,13,36,32.30
2021,08,11,13,37,32.30
2021,08,11,13,38,32.30
2021,08,11,13,39,32.30
2021,08,11,13,40,32.20
2021,08,11,13,41,32.20
2021,08,11,13,42,32.20
2021,08,11,13,43,32.10
2021,08,11,13,44,32.10
2021,08,11,13,45,32.20
2021,08,11,13,46,32.20
2021,08,11,13,47,32.20
2021,08,11,13,48,32.20
2021,08,11,13,49,32.20
2021,08,11,13,50,32.20
2021,08,11,13,51,32.30
2021,08,11,13,52,32.30
2021,08,11,13,53,32.40
2021,08,11,13,54,32.50
2021,08,11,13,55,32.50
2021,08,11,13,56,32.50
2021,08,11,13,57,32.40
2021,08,11,13,58,32.30
2021,08,11,13,59,32.40
2021,08,11,14,00,32.40
2021,08,11,14,01,32.60
2021,08,11,14,02,32.70
2021,08,11,14,03,32.70
2021,08,11,14,04,32.80
2021,08,11,14,05,32.80
2021,08,11,14,06,32.80
2021,08,11,14,07,32.90
2021,08,11,14,08,32.90
2021,08,11,14,09,32.90
2021,08,11,14,10,32.90
2021,08,11,14,11,32.90
2021,08,11,14,12,32.90
2021,08,11,14,13,33.00
2021,08,11,14,14,33.10
2021,08,11,14,15,33.10
2021,08,11,14,16,33.20
2021,08,11,14,17,33.20
2021,08,11,14,18,33.20
2021,08,11,14,19,33.20
2021,08,11,14,20,33.20
2021,08,11,14,21,33.20
2021,08,11,14,22,33.20
2021,08,11,14,23,33.20
2021,08,11,14,24,33.20
2021,08,11,14,25,33.20
2021,08,11,14,26,33.20
2021,08,11,14,27,33.20
2021,08,11,14,28,33.20
2021,08,11,14,29,33.20
2021,08,11,14,30,33.20
2021,08,11,14,31,33.20
2021,08,11,14,32,33.10
2021,08,11,14,33,33.10
2021,08,11,14,34,33.10
2021,08,11,14,35,33.20
2021,08,11,14,36,33.20
2021,08,11,14,37,33.30
2021,08,11,14,38,33.30
2021,08,11,14,39,33.30
2021,08,11,14,40,33.40
2021,08,11,14,41,33.40
2021,08,11,14,42,33.40
2021,08,11,14,43,33.40
2021,08,11,14,44,33.30
2021,08,11,14,45,33.30
2021,08,11,14,46,33.20
2021,08,11,14,47,33.20
2021,08,11,14,48,33.20
2021,08,11,14,49,33.30
2021,08,11,14,50,33.30
2021,08,11,14,51,33.40
2021,08,11,14,52,33.50
2021,08,11,14,53,33.60
2021,08,11,14,54,33.70
2021,08,11,14,55,33.70
2021,08,11,14,56,33.70
2021,08,11,14,57,33.80
2021,08,11,14,58,33.80
2021,08,11,14,59,33.80
2021,08,11,15,00,33.80
2021,08,11,15,01,33.70
2021,08,11,15,02,33.70
2021,08,11,15,03,33.70
2021,08,11,15,04,33.80
2021,08,11,15,05,33.70
2021,08,11,15,06,33.70
2021,08,11,15,07,33.70
2021,08,11,15,08,33.70
2021,08,11,15,09,33.70
2021,08,11,15,10,33.70
2021,08,11,15,11,33.80
2021,08,11,15,12,33.80
2021,08,11,15,13,33.80
2021,08,11,15,14,33.80
2021,08,11,15,15,33.80
2021,08,11,15,16,33.80
2021,08,11,15,17,33.70
2021,08,11,15,18,33.70
2021,08,11,15,19,33.70
2021,08,11,15,20,33.70
2021,08,11,15,21,33.70
2021,08,11,15,22,33.60
2021,08,11,15,23,33.70
2021,08,11,15,24,33.70
2021,08,11,15,25,33.70
2021,08,11,15,26,33.70
2021,08,11,15,27,33.80
2021,08,11,15,28,33.90
2021,08,11,15,29,34.00
2021,08,11,15,30,34.00
2021,08,11,15,31,34.00
2021,08,11,15,32,34.00
2021,08,11,15,33,34.00
2021,08,11,15,34,33.90
2021,08,11,15,35,33.90
2021,08,11,15,36,33.80
2021,08,11,15,37,33.80
2021,08,11,15,38,33.80
2021,08,11,15,39,33.70
2021,08,11,15,40,33.70
2021,08,11,15,41,33.70
2021,08,11,15,42,33.80
2021,08,11,15,43,33.80
2021,08,11,15,44,33.70
2021,08,11,15,45,33.70
2021,08,11,15,46,33.60
2021,08,11,15,47,33.60
2021,08,11,15,48,33.70
2021,08,11,15,49,33.70
2021,08,11,15,50,33.70
2021,08,11,15,51,33.70
2021,08,11,15,52,33.70
2021,08,11,15,53,33.70
2021,08,11,15,54,33.80
2021,08,11,15,55,33.90
2021,08,11,15,56,33.90
2021,08,11,15,57,33.90
2021,08,11,15,58,33.90
2021,08,11,15,59,33.90
2021,08,11,16,00,33.90
2021,08,11,16,01,33.90
2021,08,11,16,02,33.90
2021,08,11,16,03,33.90
2021,08,11,16,04,33.80
2021,08,11,16,05,33.80
2021,08,11,16,06,33.80
2021,08,11,16,07,33.80
2021,08,11,16,08,33.70
2021,08,11,16,09,33.70
2021,08,11,16,10,33.70
2021,08,11,16,11,33.70
2021,08,11,16,12,33.80
2021,08,11,16,13,33.80
2021,08,11,16,14,33.80
2021,08,11,16,15,33.80
2021,08,11,16,16,33.90
2021,08,11,16,17,33.90
2021,08,11,16,18,33.90
2021,08,11,16,19,34.00
2021,08,11,16,20,34.00
2021,08,11,16,21,34.10
2021,08,11,16,22,34.10
2021,08,11,16,23,34.10
2021,08,11,16,24,34.10
2021,08,11,16,25,34.10
2021,08,11,16,26,34.10
2021,08,11,16,27,34.00
2021,08,11,16,28,33.90
2021,08,11,16,29,33.90
2021,08,11,16,30,34.00
2021,08,11,16,31,34.00
2021,08,11,16,32,34.10
2021,08,11,16,33,34.10
2021,08,11,16,34,34.10
2021,08,11,16,35,34.00
2021,08,11,16,36,33.90
2021,08,11,16,37,33.80
2021,08,11,16,38,33.70
2021,08,11,16,39,33.70
2021,08,11,16,40,33.80
2021,08,11,16,41,33.70
2021,08,11,16,42,33.70
2021,08,11,16,43,33.80
2021,08,11,16,44,33.80
2021,08,11,16,45,33.80
2021,08,11,16,46,33.80
2021,08,11,16,47,33.80
2021,08,11,16,48,33.80
2021,08,11,16,49,33.90
2021,08,11,16,50,33.90
2021,08,11,16,51,33.80
2021,08,11,16,52,33.80
2021,08,11,16,53,33.70
2021,08,11,16,54,33.60
2021,08,11,16,55,33.60
2021,08,11,16,56,33.60
2021,08,11,16,57,33.60
2021,08,11,16,58,33.50
2021,08,11,16,59,33.50
2021,08,11,17,00,33.50
2021,08,11,17,01,33.50
2021,08,11,17,02,33.40
2021,08,11,17,03,33.40
2021,08,11,17,04,33.40
2021,08,11,17,05,33.50
2021,08,11,17,06,33.50
2021,08,11,17,07,33.50
2021,08,11,17,08,33.50
2021,08,11,17,09,33.50
2021,08,11,17,10,33.50
2021,08,11,17,11,33.50
2021,08,11,17,12,33.50
2021,08,11,17,13,33.40
2021,08,11,17,14,33.40
2021,08,11,17,15,33.30
2021,08,11,17,16,33.30
2021,08,11,17,17,33.30
2021,08,11,17,18,33.30
2021,08,11,17,19,33.30